Regional Weather Roundup
Issued by NWS

Home | Current Version | Previous Version | Graphics & Text | Print | Product List | Glossary On
Versions: 1 2 3 4 5 6 7 8 9 10 11 12 13 14 15 16 17 18 19 20 21 22 23 24 25 26 27 28 29 30 31 32 33 34 35 36 37 38 39 40 41 42 43 44 45 46 47 48 49 50
000
ASUS43 KMKX 181111
RWRWI

WISCONSIN REGIONAL WEATHER ROUNDUP
NATIONAL WEATHER SERVICE MILWAUKEE/SULLIVAN WI
500 AM CST SAT NOV 18 2017

NOTE: "FAIR" INDICATES FEW OR NO CLOUDS BELOW 12,000 FEET WITH NO
SIGNIFICANT WEATHER AND/OR OBSTRUCTIONS TO VISIBILITY.

WIZ001-002-006>008-014>016-023>028-181200-
NORTHWEST WISCONSIN

CITY           SKY/WX    TMP DP  RH WIND       PRES   REMARKS
SUPERIOR ARPT  CLOUDY    31  27  86 NW10      29.75R WCI  22
ASHLAND        CLOUDY    34  31  88 NW3       29.71R
HAYWARD        CLOUDY    34  31  88 CALM      29.70R FOG
SIREN          CLOUDY    32  31  98 N6        29.74R WCI  26
CUMBERLAND     CLOUDY    32  32 100 N8        29.69R WCI  25
RICE LAKE      CLOUDY    34  32  93 NW7       29.71R FOG     WCI  28
CHETEK         CLOUDY    33  32  95 N3        29.69R
LADYSMITH      CLOUDY    33  33  98 NW7       29.69R FOG     WCI  27
EAU CLAIRE     CLOUDY    35  33  92 N6        29.68R FOG     WCI  30
MENOMONIE      CLOUDY    35  33  92 NW10      29.69R WCI  27
NEW RICHMOND   CLOUDY    33  33  99 NW9       29.72R FOG     WCI  25
OSCEOLA        CLOUDY    33  33 100 N7        29.76R WCI  27
$$

WIZ003>005-009-010-017-018-181200-
NORTH CENTRAL WISCONSIN

CITY           SKY/WX    TMP DP  RH WIND       PRES   REMARKS
MANITOWISH WTR CLOUDY    32  32 100 N5        29.62R FOG     WCI  27
ARBOR VITAE    CLOUDY    34  33  96 N9        29.60S FOG     WCI  27
WOODRUFF       CLOUDY    34  33  96 N9        29.60S FOG     WCI  27
RHINELANDER    FOG       33  33 100 N8        29.60S VSB 1   WCI  26
EAGLE RIVER    CLOUDY    32  32 100 N8        29.60R FOG     WCI  25
LAND O LAKES   FOG       33  33 100 N9        29.62R VSB 1/2 WCI  25
PHILLIPS       CLOUDY    32  32 100 NW6       29.65R FOG     WCI  26
TOMAHAWK       CLOUDY    32  32  99 N5        29.62R FOG     WCI  28
MEDFORD        CLOUDY    32  32 100 N8        29.62R FOG     WCI  25
MERRILL        CLOUDY    33  33 100 N8        29.61R FOG     WCI  27
$$

WIZ029-030-035-036-043>047-181200-
CENTRAL WISCONSIN

CITY           SKY/WX    TMP DP  RH WIND       PRES   REMARKS
WAUSAU         CLOUDY    34  33  96 N8        29.59S WCI  27
MOSINEE        CLOUDY    34  34 100 N12       29.60S WCI  25
MARSHFIELD     CLOUDY    34  31  88 N9        29.60R WCI  27
STEVENS POINT  CLOUDY    33  33 100 N7        29.60R WCI  26
WAUPACA        CLOUDY    36  35  94 NW5       29.59R FOG     WCI  32
WAUTOMA        CLOUDY    35  33  92 N8        29.58R WCI  29
WISC RAPIDS    CLOUDY    35  33  92 N9        29.61R WCI  28
CAMP DOUGLAS   CLOUDY    35  35  99 N13       29.60R WCI  27
$$

WIZ011>013-019>022-031-037>040-048>050-181200-
NORTHEAST WISCONSIN

CITY           SKY/WX    TMP DP  RH WIND       PRES   REMARKS
ANTIGO         CLOUDY    32  32 100 N10       29.58S WCI  24
SHAWANO        CLOUDY    35  33  92 N5        29.58F WCI  31
OCONTO         CLOUDY    35  33  92 NE7       29.57F WCI  29
STURGEON BAY   CLOUDY    38  35  89 N10       29.58R WCI  31
GREEN BAY      CLOUDY    36  35  96 N10       29.56F WCI  28
MANITOWOC      LGT RAIN  37  35  92 N8        29.56F WCI  31
APPLETON       CLOUDY    34  34 100 N10       29.55F WCI  26
CLINTONVILLE   CLOUDY    34  32  93 N6        29.59S WCI  29
OSHKOSH        MIX PCPN  36  34  92 N9        29.56F WCI  29
$$

WIZ032>034-041-042-053>061-181200-
SOUTHWEST WISCONSIN

CITY           SKY/WX    TMP DP  RH WIND       PRES   REMARKS
LA CROSSE      CLOUDY    38  35  89 N13       29.64R WCI  30
SPARTA         CLOUDY    34  33  96 N10       29.63R WCI  26
VIROQUA        CLOUDY    35  35 100 N9        29.59R WCI  28
BOSCOBEL       LGT RAIN  39  36  89 N8        29.59R WCI  33
PRAIRIE DU CHI LGT RAIN  38  36  91 NW9       29.59R WCI  32
PLATTEVILLE    CLOUDY    38  38 100 N14       29.51F WCI  29
$$

WIZ056-057-062-063-064-067-068-181200-
SOUTH CENTRAL WISCONSIN

CITY           SKY/WX    TMP DP  RH WIND       PRES   REMARKS
REEDSBURG      LGT RAIN  36  36 100 N5        29.58R WCI  32
BARABOO/DELLS  LGT RAIN  35  35  98 N7        29.57R WCI  29
LONE ROCK      CLOUDY    38  36  92 VRB5      29.58S WCI  34
MINERAL POINT  CLOUDY    37  37 100 N12       29.53S WCI  30
MADISON        CLOUDY    37  35  92 NE10      29.54F WCI  30
MIDDLETON      CLOUDY    38  37  97 N9        29.55S WCI  32
WATERTOWN      CLOUDY    36  36 100 N7        29.54F WCI  30
MONROE         CLOUDY    37  36  93 N9        29.52F WCI  31
JANESVILLE     CLOUDY    37  37 100 NE8       29.52F WCI  31
$$

WIZ051-052-058>065-066-070>072-181200-
SOUTHEAST WISCONSIN

CITY           SKY/WX    TMP DP  RH WIND       PRES   REMARKS
MILWAUKEE      MOCLDY    41  38  89 N6        29.55R
WAUKESHA       CLOUDY    36  34  93 N7        29.54F WCI  30
MILWAUKEE/TIMM CLOUDY    37  34  87 N8        29.54F WCI  31
RACINE         CLOUDY    41  39  93 N16G22    29.55F
BURLINGTON     CLOUDY    41  41 100 N7        29.52F
KENOSHA        CLOUDY    41  38  89 N8        29.53F
FOND DU LAC    LGT RAIN  37  33  85 N14       29.54F WCI  28
SHEBOYGAN      LGT RAIN  37  35  92 N9        29.56F WCI  30
WEST BEND      DRIZZLE   36  34  93 N6        29.53F WCI  31
JUNEAU         CLOUDY    35  33  94 N6        29.55F WCI  30
$$

LSZ147-162-181200-
LAKE SUPERIOR

STATION/POSITION TIME  TEMP    WIND        PRES    WAVE
                       AIR SEA DIR/SP/G            HT/PER
                 (UTC) (F)     (DEG/KT/KT) (MB)    (FT/S)
DEVILS ISLAND    1100   36     340/ 15/ 17 1006.7R
SAXON HARBOR     1040   39     350/ 12/ 14 1005.1R
$$

LMZ867-665-643>646-181200-
LAKE MICHIGAN

STATION/POSITION TIME  TEMP    WIND        PRES    WAVE
                       AIR SEA DIR/SP/G            HT/PER
                 (UTC) (F)     (DEG/KT/KT) (MB)    (FT/S)
N MID LAKE BUOY  1050   40 48  350/ 21/ 25 1001.4R   5/ 8
NORTHPORT PIER   1101   40     360/ 18/ 24 1001.7
SHEBOYGAN LAKESH 1100   38     350/ 14/ 17 1001.3F
PORT WASHINGTON  1040   39     360/  7/ 11 1002.0F
MILWAUKEE LAKESH 1050   40     350/  6/  8   N/A
S MID LAKE BUOY  0950   45 49  360/ 10/ 12  999.9F   2/ 5
KENOSHA   LAKESH 1100   42     360/ 11/ 15 1000.3
$$

TC  - TEMPERATURE IN CELSIUS
VSB - VISIBILITY IN STATUTE MILES
WCI - WIND CHILL INDEX
HX  - HEAT INDEX





USA.gov is the U.S. government's official web portal to all federal, state and local government web resources and services.